User: anonymous   Login
Location: Peebles
(55.6412°N, 3.1714°W)
Time: 07:25:39
(UTC+00:00)
Language:

CUBEBUG 2 - Orbit

View from above orbital plane
View from above orbital plane
View from above satellite
View from above satellite

Ground track
Ground track

The orbit data is extracted from the following two-line orbital elements,

1 39440U 13066AA  22333.45527905  .00002162  00000-0  29498-3 0  9992
2 39440  97.7485 284.3038 0076878 317.1817  42.3422 14.77647355484646
Epoch (UTC): 29 November 2022 10:55:36
Eccentricity: 0.0076878
inclination: 97.7485°
perigee height: 583 km
apogee height: 690 km
right ascension of ascending node: 284.3038°
argument of perigee: 317.1817°
revolutions per day: 14.77647355
mean anomaly at epoch: 42.3422°
orbit number at epoch: 48464

The dashed part of the orbit path shows where the satellite is in the earth's shadow,  

DLR